Regional Weather Roundup
Issued by NWS

Home | Current Version | Previous Version | Graphics & Text | Print | Product List | Glossary On
Versions: 1 2 3 4 5 6 7 8 9 10 11 12 13 14 15 16 17 18 19 20 21 22 23 24 25 26 27 28 29 30 31 32 33 34 35 36 37 38 39 40 41 42 43 44 45 46 47 48 49 50
000
ASUS43 KOAX 161902
RWRNE

WEATHER ROUNDUP FOR NEBRASKA
NATIONAL WEATHER SERVICE OMAHA NE
200 PM CDT MON OCT 16 2017

NOTES: SATELLITE DATA IS BEING USED TO AUGMENT CLOUD COVER ABOVE
       12000 FEET.
       "FAIR" INDICATES FEW OR NO CLOUDS BELOW 12,000 FEET WITH NO
       SIGNIFICANT WEATHER AND/OR OBSTRUCTIONS TO VISIBILITY.


NEZ001>004-019>022-054>056-162000-
NEBRASKA PANHANDLE

CITY           SKY/WX    TMP DP  RH WIND       PRES   REMARKS
SCOTTSBLUFF    SUNNY     74  18  12 W12       30.16F
ALLIANCE       SUNNY     72  17  12 W17       30.14F
CHADRON        SUNNY     72  18  13 W15G21    30.11F
GORDON         FAIR      73  26  17 NW5       30.11F
KIMBALL        SUNNY     74  17  11 W18G29    30.22F
SIDNEY         SUNNY     77  13   9 NW20G26   30.18F
$$

NEZ057>060-069>072-079>082-162000-
SOUTHWEST NEBRASKA

CITY           SKY/WX    TMP DP  RH WIND       PRES   REMARKS
NORTH PLATTE   SUNNY     76  32  20 SW17G23   30.13F
IMPERIAL       SUNNY     77  22  13 SW15      30.16F
LEXINGTON      SUNNY     73  37  27 SW20G25   30.17F
MCCOOK         SUNNY     79  30  16 SW22      30.16F
OGALLALA       SUNNY     74  31  21 SW6       30.15F
$$

NEZ005>010-023>029-035>040-094-162000-
NORTH CENTRAL NEBRASKA

CITY           SKY/WX    TMP DP  RH WIND       PRES   REMARKS
VALENTINE      SUNNY     77  29  17 W13       30.08F
AINSWORTH      CLOUDY    74  33  22 SW10      30.09F
BROKEN BOW     SUNNY     74  34  23 SW17      30.14F
O`NEILL        SUNNY     73  39  28 SW16G22   30.10F
THEDFORD       SUNNY     76  30  18 SW15G21   30.12F
$$

NEZ041-046>049-061>064-073>077-083>087-162000-
SOUTH CENTRAL NEBRASKA

CITY           SKY/WX    TMP DP  RH WIND       PRES   REMARKS
GRAND ISLAND   SUNNY     74  35  24 SW20G26   30.18F
AURORA         SUNNY     72  34  24 SW20G29   30.18F
HASTINGS       SUNNY     70  32  24 S16G29    30.20F
HEBRON         SUNNY     73  35  24 S17G26    30.23F
KEARNEY        SUNNY     74  32  21 S24G35    30.18F
YORK           SUNNY     73  36  25 SW18G25   30.20F
$$

NEZ011>018-030>034-042>045-162000-
NORTHEAST NEBRASKA

CITY           SKY/WX    TMP DP  RH WIND       PRES   REMARKS
NORFOLK        SUNNY     73  36  25 S21G31    30.13F
ALBION         SUNNY     73  37  27 SW14G24   30.15F
BLAIR          SUNNY     71  36  28 S18G26    30.20F
COLUMBUS       SUNNY     74  37  26 S20G25    30.17F
FREMONT        SUNNY     70  37  30 S10G22    30.19F
TEKAMAH        SUNNY     73  34  23 SW13G25   30.17F
WAYNE          SUNNY     72  30  21 SW23      30.14F
$$

NEZ050>053-065>068-078-088>093-162000-
SOUTHEAST NEBRASKA

CITY           SKY/WX    TMP DP  RH WIND       PRES   REMARKS
LINCOLN        SUNNY     72  34  24 SW18      30.22F
OMAHA EPPLEY   SUNNY     71  34  25 SW13G25   30.21F
BEATRICE       SUNNY     71  38  29 SW20      30.24F
FALLS CITY     SUNNY     70  37  29 SW15      30.27F
NEBRASKA CITY  SUNNY     70  39  31 SW14G22   30.24F
PLATTSMOUTH    SUNNY     71  37  28 S17G28    30.23F
$$

NEZ044-045-051>053-067-162000-
OMAHA AREA

CITY           SKY/WX    TMP DP  RH WIND       PRES   REMARKS
OMAHA EPPLEY   SUNNY     71  34  25 SW13G25   30.21F
BLAIR          SUNNY     71  36  28 S18G26    30.20F
FREMONT        SUNNY     70  37  30 S10G22    30.19F
MILLARD        SUNNY     72  38  28 S10G16    30.21F
OFFUTT AFB     SUNNY     71  35  27 S14G20    30.21F
PLATTSMOUTH    SUNNY     71  37  28 S17G28    30.23F
WAHOO          FAIR      72  36  27 S18G24    30.20F
$$



USA.gov is the U.S. government's official web portal to all federal, state and local government web resources and services.